OICS  Sanandaj Airport

Add Bookmark

Iran

Status IATA
Operational SDG
Latitude Longitude
35° 14' 45" N 47° 0' 33" E
35.245899 47.009201
Local (DST + 5) UTC (GMT + 4)
Oct 26, 2014 05:19 Oct 26, 2014 01:49
Sunrise-Sunset Local UTC
Begin Civil Twilight 06:10 02:40
Sunrise 06:36 03:06
Sunset 05:35 14:05
End Civil Twilight 06:01 14:31

Current Weather

METAR Observed VFR
OICS 260051Z 00000KT CAVOK 04/03 Q1020 Sun, Oct 26, 2014 @ 00:51 UTC
(58 Minutes ago)
Visual Flight Rules
Wind Visibility Clouds Conditions
Calm 10 km or more
  • Clear skies
  • No significant weather
Temperatures Readings Precipitation
Current Temp 4°C (39°F)
Dewpoint 3°C (37°F)
Humidity 93%
Altimeter 30.12"Hg
Sea Level Pressure 1020mb
Field Elevation 4504.59'
None Recorded

Additional weather within a 185.2km radius of OICS

Map ICAO Location
OICC 100.9km S (172°)
OIGK 107.4km S (175°)
OIHH 146.5km E (106°)
ORSU 157.2km W (283°)

24 Hour Weather History

Loading
-

24 Hour Weather Graphs

Loading
-

CheckWX.com is intended as a tool to help pilots better visualize weather data. It is not intended as a substitute for an official weather briefing obtained from a Flight Service Station. CheckWX.com does not meet the FAA requirements for an official pre-flight weather briefing. Therefore, it's important that pilots still call and obtain an official FSS pre-flight weather briefing.